This demonstration page uses our WeatherBlox Daily Observations layout. Learn more.

Left ArrowRight Arrow

Hourly Observations for November 28, 2020

Temp ( °F °C ) Dew Point ( °F °C ) Humidity (%) Winds ( mph kmh ) Pressure ( in mb ) Visibility ( mi km ) Precip ( " mm )
12:51 am 00:51 Clear 35 1.7 23 -5 61 61 N 6 9 30.17 1022 10 16 0.00 0.00
1:51 am 01:51 Clear 35 1.7 22 -5.6 59 59 Calm 30.16 1021 10 16 0.00 0.00
2:51 am 02:51 Clear 34 1.1 21 -6.1 59 59 NNE 3 6 30.16 1021 10 16 0.00 0.00
3:51 am 03:51 Clear 32 0 22 -5.6 66 66 ESE 3 6 30.18 1022 10 16 0.00 0.00
4:51 am 04:51 Clear 31 -0.6 20 -6.7 64 64 Calm 30.20 1023 10 16 0.00 0.00
5:51 am 05:51 Clear 28 -2.2 19 -7.2 69 69 E 6 9 30.23 1024 10 16 0.00 0.00
6:51 am 06:51 Clear 29 -1.7 19 -7.2 66 66 SE 3 6 30.25 1025 10 16 0.00 0.00
7:51 am 07:51 Sunny 33 0.6 21 -6.1 61 61 Calm 30.27 1025 10 16 0.00 0.00
8:51 am 08:51 Sunny 37 2.8 22 -5.6 54 54 Calm 30.27 1025 10 16 0.00 0.00
9:51 am 09:51 Sunny 45 7.2 25 -3.9 46 46 SE 7 11 30.26 1025 10 16 0.00 0.00
10:51 am 10:51 Sunny 50 10 26 -3.3 39 39 SSE 6 9 30.24 1024 10 16 0.00 0.00
11:51 am 11:51 Sunny 54 12.2 27 -2.8 35 35 SE 7 11 30.20 1023 10 16 0.00 0.00
12:51 pm 12:51 Sunny 57 13.9 26 -3.3 30 30 Calm 30.17 1022 10 16 0.00 0.00
1:51 pm 13:51 Sunny 59 15 26 -3.3 28 28 VRB 3 6 30.13 1020 10 16 0.00 0.00
2:51 pm 14:51 Sunny 59 15 26 -3.3 28 28 VRB 3 6 30.11 1020 10 16 0.00 0.00
3:51 pm 15:51 Sunny 60 15.6 25 -3.9 26 26 Calm 30.09 1019 10 16 0.00 0.00
4:51 pm 16:51 Sunny 59 15 25 -3.9 27 27 Calm 30.09 1019 10 16 0.00 0.00
5:51 pm 17:51 Clear 54 12.2 24 -4.4 31 31 Calm 30.11 1020 10 16 0.00 0.00
6:51 pm 18:51 Clear 47 8.3 20 -6.7 34 34 NNE 5 7 30.14 1021 10 16 0.00 0.00
7:51 pm 19:51 Clear 46 7.8 21 -6.1 37 37 E 3 6 30.14 1021 10 16 0.00 0.00
8:51 pm 20:51 Clear 42 5.6 20 -6.7 41 41 ESE 8 13 30.14 1021 10 16 0.00 0.00
9:51 pm 21:51 Clear 41 5 21 -6.1 45 45 SE 5 7 30.13 1020 10 16 0.00 0.00
10:51 pm 22:51 Clear 39 3.9 21 -6.1 48 48 E 5 7 30.12 1020 10 16 0.00 0.00
11:51 pm 23:51 Clear 38 3.3 21 -6.1 51 51 ESE 5 7 30.12 1020 10 16 0.00 0.00

Powered by AerisWeather